Regional Weather Roundup
Issued by NWS

Home | Current Version | Previous Version | Graphics & Text | Print | Product List | Glossary On
Versions: 1 2 3 4 5 6 7 8 9 10 11 12 13 14 15 16 17 18 19 20 21 22 23 24 25 26 27 28 29 30 31 32 33 34 35 36 37 38 39 40 41 42 43 44 45 46 47 48 49 50
000
ASUS43 KLOT 070721
RWRIL

ILLINOIS REGIONAL WEATHER ROUNDUP
NATIONAL WEATHER SERVICE CHICAGO/ROMEOVILLE IL
200 AM CDT TUE JUL 07 2015

NOTE: "FAIR" INDICATES FEW OR NO CLOUDS BELOW 12,000 FEET WITH NO
SIGNIFICANT WEATHER AND/OR OBSTRUCTIONS TO VISIBILITY.

* THESE STATIONS ARE NOT UNDER NWS QUALITY CONTROL. THEY ALSO MAY NOT
  REPORT WEATHER SUCH AS PRECIPITATION OR FOG.

ILZ001-002-007-009-015-016-024-070800-
NORTHWEST ILLINOIS

CITY           SKY/WX    TMP DP  RH WIND       PRES   REMARKS
MOLINE         CLOUDY    65  61  87 N8        29.88R
STERLING*      CLOUDY    64  63  94 N12G18    29.86F
SAVANNA*       CLOUDY    64  60  87 N13       29.89S
$$

ILZ003-004-008-010-011-017-018-070800-
NORTH CENTRAL ILLINOIS

CITY           SKY/WX    TMP DP  RH WIND       PRES   REMARKS
ROCKFORD       LGT RAIN  66  63  90 N16       29.86S FOG
FREEPORT*      CLOUDY    62  60  96 N10G16    29.91R FOG
ROCHELLE*      CLOUDY    66  65  94 NW7       29.86R
DE KALB*       CLOUDY    69  67  94 W7        29.86S
PERU*          DRIZZLE   71  70  96 S3        29.86F
$$

ILZ005-006-012>014-019>023-070800-
NORTHEAST ILLINOIS

CITY           SKY/WX    TMP DP  RH WIND       PRES   REMARKS
CHICAGO-OHARE  CLOUDY    71  69  93 SW8       29.83S
CHICAGO-MIDWAY CLOUDY    73  69  87 S6        29.85R
AURORA         CLOUDY    71  68  90 SW6       29.85S
LANSING*       LGT RAIN  73  67  84 SW5       29.86S
JOLIET*        LGT RAIN  72  71  97 S3        29.85F
WAUKEGAN       CLOUDY    70  69  97 SW6       29.81R
DUPAGE AIRPORT CLOUDY    71  68  90 SW8       29.84S
KANKAKEE*      HVY RAIN  73  71  95 W8        29.88R
WHEELING       LGT RAIN  72  69  90 SW6       29.84R
MORRIS*        LGT RAIN  71  70  96 SW3       29.83F
ROMEOVILLE*    CLOUDY    71  70  97 SW6       29.85S
NORTHERLY ISL    N/A     72  68  87 S8          N/A
$$

LMZ740>746-070800-
SOUTHERN LAKE MICHIGAN

STATION/POSITION SKY/WX   TEMP    WIND        PRES    VSBY  WAVE
                          AIR SEA DIR/SP/G                  HT/PER
                          (F)     (DEG/KT/KT) (MB)    (MI)  (FT/S)
HARRISON CRIB              71     190/ 13/ 14   N/A
BURNHAM HARBOR             72     210/  4/  8   N/A
CALUMET HARBOR             72     180/  4/  6   N/A
BURNS HARBOR               75     250/ 10/ 15 1011.5S
MICHIGAN CITY              69     240/  4/  7   N/A
MICHIGAN CITY 6N           69 68  300/  6/  8   N/A           1/ 2
ST. JOSEPH                 68 66  300/  4/  6   N/A           1/ 3
$$

ILZ025>027-034>036-040-047-049-050-058-095>099-070800-
WEST-CENTRAL ILLINOIS

CITY           SKY/WX    TMP DP  RH WIND       PRES   REMARKS
QUINCY         LGT RAIN  72  71  97 NW7       29.87S
GALESBURG*     CLOUDY    67  66  96 N10       29.88R
MACOMB*        CLOUDY    70  70  99 CALM      29.89R
JACKSONVILLE*  LGT RAIN  74  72  93 CALM      29.87S
PITTSFIELD*    LGT RAIN  72  70  93 CALM      29.88S
$$

ILZ028>032-037-038-041>044-048-051>054-059>061-070800-
CENTRAL ILLINOIS

CITY           SKY/WX    TMP DP  RH WIND       PRES   REMARKS
PONTIAC        RAIN      73  72  99 CALM      29.88F
BLOOMINGTON    RAIN      72  71  96 NW5       29.89F FOG
DECATUR        CLOUDY    77  73  87 S13       29.88S
PEORIA         LGT RAIN  73  70  90 SE3       29.86S
LACON*         CLOUDY    71  69  95 S3        29.85S
LINCOLN*       RAIN      74  70  87 NW5       29.88S
SPRINGFIELD    RAIN      76  72  87 W13       29.88R FOG
TAYLORVILLE    CLOUDY    73  73 100 S9        29.88S
$$

ILZ033-039-045-046-055>057-062-063-070800-
EAST-CENTRAL ILLINOIS

CITY           SKY/WX    TMP DP  RH WIND       PRES   REMARKS
CHAMPAIGN      CLOUDY    76  73  91 S12       29.89S
DANVILLE*      RAIN      75  73  93 S13       29.87S
RANTOUL*       CLOUDY    78  75  88 SW10      29.88S HX  81
MATTOON        PTCLDY    76  73  91 S10       29.90S
PARIS*         PTCLDY    75  74  95 S9        29.91S
$$

ILZ079-100>102-070800-
SOUTHWEST ILLINOIS

CITY           SKY/WX    TMP DP  RH WIND       PRES   REMARKS
ALTON          CLOUDY    77  77 100 S7        29.89F
BELLEVILLE     CLOUDY    78  77  98 S9        29.89F HX  80
CAHOKIA*       CLOUDY    79  73  82 S6        29.88F HX  82
SPARTA*        CLOUDY    76  73  89 S10G16    29.93F
$$

ILZ064>066-069>071-074>076-080>082-084>086-088>090-092>094-070800-
SOUTH-CENTRAL ILLINOIS

CITY           SKY/WX    TMP DP  RH WIND       PRES   REMARKS
CARBONDALE     MOCLDY    77  72  84 S13       29.94F
CAIRO*         CLOUDY    76  71  86 S9        29.97F
EFFINGHAM*     PTCLDY    76  72  86 S8        29.93S
MARION         MOCLDY    77  73  88 SW10      29.96F
MT. VERNON     PTCLDY    77  70  78 S12       29.94S
CENTRALIA*     PTCLDY    76  71  83 S10       29.92F
SALEM*         PTCLDY    79  73  82 S10       29.93S HX  82
$$

ILZ067-068-072-073-078-083-087-091-070800-
SOUTHEAST ILLINOIS

CITY           SKY/WX    TMP DP  RH WIND       PRES   REMARKS
LAWRENCEVILLE  PTCLDY    77  74  90 S13       29.94F
FLORA*         PTCLDY    76  72  89 S9        29.93F
FAIRFIELD*     CLEAR     76  73  89 S9G16     29.92F
HARRISBURG*    PTCLDY    77  75  92 SW8       29.97S
ROBINSON*      PTCLDY    76  73  88 S9        29.94S
CARMI*         PTCLDY    76  69  80 S9        29.95F
$$

ABBREVIATIONS USED IN REMARKS
   TC - TEMPERATURE IN CELSIUS
  WCI - WIND CHILL INDEX
   HX - HEAT INDEX
  VSB - VISIBILITY
$$




USA.gov is the U.S. government's official web portal to all federal, state and local government web resources and services.